{"data":{"norad_id":55357,"epoch":"2026-09-20T12:50:14.159904Z","epoch_age_seconds":93669,"freshness":"FRESH","line1":"1 55357U 23013AC  26263.53488611 -.00000273  00000+0 -39855-6 0  9998","line2":"2 55357  43.0010 282.9195 0001168 258.7886 101.2835 15.27573999201472","mean_motion":15.27573999,"eccentricity":0.0001168,"inclination_deg":43.001,"raan_deg":282.9195,"arg_perigee_deg":258.7886,"mean_anomaly_deg":101.2835,"bstar":-3.9855e-7,"rev_number":20147,"period_min":94.267119035979,"perigee_km":482.26567661651,"apogee_km":483.86845388615,"semimajor_km":6861.2040652513,"source":"CELESTRAK","updated_at":"2026-09-21T09:00:33.184488Z"}}